QPF
0.00 0.00 0.00 0.00 0.00 0.00 0.00 0.01 0.01 0.01 0.01 0.01 0.01 0.00 0.00 0.00 0.00 0.00 0.00 0.00 0.00 0.00
0.00 0.00 0.00 0.00 0.00 0.01 0.02 0.02 0.01 0.01 0.01 0.00 0.00 0.00 0.00 0.00 0.00 0.00 0.00 0.00 0.00 0.00
0.00 0.00 0.00 0.00 0.00 0.01 0.01 0.01 0.01 0.01 0.00 0.00 0.00 0.00 0.00 0.00 0.00 0.00 0.00 0.00 0.00 0.00
0.00 0.00 0.00 0.00 0.00 0.00 0.00 0.00 0.00 0.00 0.00 0.00 0.00 0.00 0.00 0.00 0.00 0.00 0.00 0.00 0.00 0.00
0.00 0.00 0.00 0.00 0.00 0.00 0.00 0.00 0.00 0.00 0.00 0.00 0.00 0.00 0.00 0.00 0.00 0.00 0.00 0.00 0.00 0.00
0.00 0.00 0.00 0.00 0.00 0.00 0.00 0.00 0.00 0.00 0.01 0.01 0.00 0.00 0.00 0.00 0.00 0.00 0.00 0.00 0.00 0.00
0.00 0.00 0.00 0.00 0.00 0.00 0.00 0.00 0.00 0.01 0.01 0.01 0.00 0.00 0.00 0.00 0.00 0.00 0.00 0.00 0.00 0.00
0.00 0.00 0.00 0.00 0.01 0.01 0.02 0.02 0.01 0.00 0.00 0.00 0.00 0.00 0.00 0.00 0.00 0.00 0.00 0.00 0.00 0.00
0.01 0.01 0.02 0.03 0.03 0.03 0.02 0.01 0.00 0.00 0.00 0.00 0.00 0.00 0.00 0.00 0.00 0.00 0.00 0.00 0.00 0.00
0.02 0.03 0.04 0.04 0.04 0.04 0.04 0.03 0.02 0.01 0.01 0.01 0.00 0.00 0.01 0.01 0.01 0.01 0.01 0.00 0.00 0.00
0.02 0.03 0.03 0.03 0.03 0.03 0.02 0.02 0.03 0.03 0.03 0.02 0.02 0.02 0.03 0.03 0.04 0.03 0.01 0.00 0.00 0.00
0.02 0.02 0.02 0.02 0.02 0.02 0.02 0.02 0.02 0.01 0.02 0.02 0.02 0.03 0.03 0.03 0.02 0.02 0.01 0.00 0.00 0.00
0.01 0.01 0.01 0.01 0.02 0.02 0.02 0.02 0.02 0.02 0.02 0.02 0.01 0.02 0.02 0.01 0.02 0.03 0.01 0.00 0.00 0.00
0.00 0.00 0.01 0.01 0.01 0.01 0.01 0.02 0.02 0.02 0.02 0.02 0.01 0.01 0.01 0.01 0.02 0.02 0.01 0.00 0.00 0.00
MSLP
1013.97 1014.72 1015.81 1016.41 1016.91 1017.54 1018.03 1018.50 1018.91 1019.22 1019.73 1020.02 1020.25 1020.66 1020.82 1021.25 1021.47 1021.78 1022.18 1022.49 1022.99 1023.45
1014.22 1014.95 1015.54 1016.34 1017.08 1017.60 1017.92 1018.42 1018.93 1019.38 1019.67 1020.18 1020.60 1020.82 1021.02 1021.53 1021.66 1022.07 1022.49 1023.04 1023.56 1023.83
1014.56 1015.20 1015.68 1016.20 1016.67 1017.54 1017.89 1018.27 1018.86 1019.42 1019.90 1020.34 1020.65 1021.06 1021.45 1021.68 1022.20 1022.53 1022.88 1023.37 1023.69 1024.06
1014.97 1015.44 1015.90 1016.33 1016.86 1017.52 1017.92 1018.41 1018.81 1019.45 1020.06 1020.53 1020.89 1021.18 1021.49 1021.90 1022.37 1022.77 1023.08 1023.41 1023.83 1024.23
1015.58 1015.81 1016.16 1016.66 1017.04 1017.71 1017.95 1018.72 1018.87 1019.39 1020.03 1020.66 1021.20 1021.55 1021.72 1021.98 1022.43 1022.79 1023.20 1023.52 1023.93 1024.12
1016.27 1016.46 1016.76 1017.06 1017.42 1017.80 1018.34 1018.70 1019.28 1019.67 1020.26 1020.80 1021.35 1021.72 1021.91 1022.06 1022.46 1022.78 1023.06 1023.37 1023.76 1023.98
1017.05 1017.14 1017.35 1017.54 1017.88 1018.30 1018.62 1019.01 1019.43 1020.02 1020.82 1021.26 1021.43 1021.71 1022.04 1022.23 1022.44 1022.72 1022.98 1023.29 1023.57 1023.83
1017.70 1017.76 1017.99 1018.27 1018.54 1018.84 1019.30 1019.89 1020.33 1020.62 1020.82 1021.08 1021.48 1021.72 1022.19 1022.47 1022.54 1022.72 1022.91 1023.16 1023.39 1023.70
1018.60 1018.67 1018.82 1019.00 1019.39 1019.73 1020.08 1020.40 1020.61 1020.91 1021.25 1021.50 1021.74 1021.85 1021.89 1022.35 1022.54 1022.55 1022.76 1022.95 1023.15 1023.39
1019.21 1019.38 1019.60 1019.86 1020.07 1020.30 1020.58 1020.87 1021.11 1021.32 1021.46 1021.58 1021.78 1021.82 1021.79 1022.09 1022.52 1022.72 1022.73 1022.83 1022.88 1022.97
1019.77 1019.92 1020.09 1020.33 1020.47 1020.60 1020.76 1020.92 1021.09 1021.30 1021.50 1021.70 1021.89 1021.85 1021.81 1021.96 1022.09 1022.45 1022.54 1022.72 1022.75 1022.79
1020.21 1020.34 1020.53 1020.68 1020.77 1020.88 1020.97 1021.13 1021.27 1021.36 1021.46 1021.62 1021.82 1021.78 1021.84 1021.91 1022.09 1022.24 1022.34 1022.40 1022.38 1022.43
1020.86 1020.80 1020.93 1021.02 1020.99 1021.01 1021.09 1021.19 1021.25 1021.30 1021.45 1021.58 1021.73 1021.77 1021.82 1021.88 1022.04 1022.13 1022.13 1022.12 1022.13 1022.00
1021.41 1021.18 1021.14 1021.21 1021.18 1021.17 1021.20 1021.18 1021.28 1021.21 1021.39 1021.62 1021.72 1021.76 1021.71 1021.78 1021.86 1021.91 1021.93 1021.94 1021.76 1021.91
Thickness
5500 5497 5489 5487 5486 5483 5481 5480 5479 5479 5477 5476 5477 5478 5479 5478 5477 5476 5475 5474 5472 5469
5483 5479 5478 5473 5469 5467 5467 5465 5463 5462 5462 5460 5459 5459 5460 5458 5458 5458 5456 5454 5450 5450
5464 5462 5461 5459 5458 5452 5451 5450 5447 5445 5443 5443 5442 5441 5441 5439 5437 5437 5435 5434 5433 5433
5443 5443 5441 5441 5439 5436 5434 5431 5430 5428 5425 5423 5422 5421 5422 5422 5418 5418 5417 5417 5416 5414
5422 5422 5422 5420 5419 5415 5416 5412 5413 5411 5408 5404 5401 5400 5402 5402 5400 5401 5399 5399 5398 5399
5400 5400 5400 5400 5399 5398 5396 5395 5392 5391 5389 5386 5384 5383 5385 5386 5384 5383 5383 5383 5381 5382
5377 5377 5378 5379 5378 5376 5376 5375 5373 5370 5366 5366 5367 5367 5367 5367 5367 5367 5367 5366 5365 5365
5350 5351 5351 5352 5352 5352 5350 5348 5347 5348 5349 5348 5348 5348 5347 5347 5349 5351 5352 5351 5351 5350
5325 5326 5326 5327 5326 5326 5325 5325 5326 5327 5327 5327 5328 5329 5332 5331 5332 5335 5336 5336 5335 5334
5302 5302 5302 5302 5303 5303 5303 5303 5304 5305 5307 5309 5309 5312 5315 5315 5314 5316 5318 5319 5319 5320
5282 5282 5281 5281 5281 5282 5283 5284 5285 5286 5287 5289 5289 5292 5295 5298 5302 5299 5301 5301 5302 5303
5265 5264 5263 5262 5263 5263 5264 5265 5266 5267 5269 5270 5271 5275 5277 5280 5283 5283 5285 5287 5288 5289
5247 5248 5247 5247 5247 5248 5249 5250 5251 5253 5254 5256 5257 5259 5262 5264 5265 5268 5271 5273 5274 5275
5231 5233 5234 5233 5233 5233 5234 5236 5237 5241 5242 5243 5244 5246 5249 5251 5253 5254 5257 5258 5261 5261